• In Latvia
  • List of Countries
  • For 7 days
  • Water Temperature
  • Satellite Maps
  • Weather Map
  • Weather Widgets
  • user-avatar
    Login

    Hourly Weather Yerevan

    Today, 24 July, Monday

    Time Temperature Precipitation Wind Pressure Humidity
    00:00 +25°C° 0 mm 3 mps 687 mmHg 62%
    01:00 +24°C° 0 mm 3 mps 687 mmHg 64%
    02:00 +22°C° 0 mm 3 mps 687 mmHg 67%
    03:00 +22°C° 0 mm 3 mps 687 mmHg 69%
    04:00 +23°C° 0 mm 2 mps 687 mmHg 68%
    05:00 +23°C° 0 mm 2 mps 687 mmHg 67%
    06:00 +24°C° 0 mm 2 mps 687 mmHg 67%
    07:00 +26°C° 0 mm 2 mps 687 mmHg 59%
    08:00 +28°C° 0 mm 2 mps 687 mmHg 51%
    09:00 +29°C° 0 mm 2 mps 687 mmHg 43%
    10:00 +31°C° 0.1 mm 2 mps 687 mmHg 39%
    11:00 +32°C° 0.1 mm 2 mps 686 mmHg 36%
    12:00 +34°C° 0.1 mm 2 mps 686 mmHg 32%
    13:00 +35°C° 0.1 mm 3 mps 686 mmHg 31%
    14:00 +35°C° 0.1 mm 3 mps 686 mmHg 30%
    15:00 +36°C° 0.1 mm 3 mps 685 mmHg 29%
    16:00 +35°C° 0.5 mm 3 mps 685 mmHg 31%
    17:00 +34°C° 0.5 mm 4 mps 685 mmHg 34%
    18:00 +34°C° 0.5 mm 4 mps 685 mmHg 36%
    19:00 +32°C° 0.2 mm 4 mps 685 mmHg 43%
    20:00 +29°C° 0.2 mm 3 mps 685 mmHg 49%
    21:00 +26°C° 0.2 mm 3 mps 685 mmHg 56%
    22:00 +26°C° 0.1 mm 3 mps 685 mmHg 58%
    23:00 +25°C° 0.1 mm 2 mps 685 mmHg 61%

    Tomorrow, 25 July, Tuesday

    Time Temperature Precipitation Wind Pressure Humidity
    00:00 +24°C° 0.1 mm 2 mps 686 mmHg 64%
    01:00 +24°C° 0.1 mm 2 mps 685 mmHg 66%
    02:00 +23°C° 0.1 mm 2 mps 685 mmHg 67%
    03:00 +23°C° 0.1 mm 2 mps 685 mmHg 69%
    04:00 +23°C° 0 mm 2 mps 685 mmHg 68%
    05:00 +24°C° 0 mm 2 mps 685 mmHg 67%
    06:00 +24°C° 0 mm 2 mps 685 mmHg 65%
    07:00 +26°C° 0.1 mm 2 mps 686 mmHg 57%
    08:00 +28°C° 0.1 mm 2 mps 686 mmHg 49%
    09:00 +30°C° 0.1 mm 2 mps 686 mmHg 42%
    10:00 +31°C° 0.2 mm 2 mps 685 mmHg 38%
    11:00 +34°C° 0.2 mm 2 mps 685 mmHg 34%
    12:00 +35°C° 0.2 mm 2 mps 685 mmHg 30%
    13:00 +35°C° 0.2 mm 2 mps 685 mmHg 29%
    14:00 +36°C° 0.2 mm 2 mps 684 mmHg 28%
    15:00 +36°C° 0.2 mm 2 mps 684 mmHg 27%
    16:00 +35°C° 0.3 mm 2 mps 684 mmHg 29%
    17:00 +35°C° 0.3 mm 2 mps 684 mmHg 31%
    18:00 +34°C° 0.3 mm 2 mps 683 mmHg 32%
    19:00 +31°C° 0.1 mm 2 mps 684 mmHg 39%
    20:00 +29°C° 0.1 mm 2 mps 684 mmHg 45%
    21:00 +27°C° 0.1 mm 2 mps 685 mmHg 51%
    22:00 +26°C° 0.1 mm 2 mps 685 mmHg 54%
    23:00 +26°C° 0.1 mm 2 mps 685 mmHg 57%

    Day after tomorrow, 26 July, Wednesday

    Time Temperature Precipitation Wind Pressure Humidity
    00:00 +25°C° 0.1 mm 2 mps 685 mmHg 59%
    01:00 +24°C° 0 mm 2 mps 685 mmHg 61%
    02:00 +24°C° 0 mm 2 mps 685 mmHg 62%
    03:00 +23°C° 0 mm 2 mps 685 mmHg 63%
    04:00 +24°C° 0 mm 2 mps 685 mmHg 62%
    05:00 +24°C° 0 mm 1 mps 685 mmHg 62%
    06:00 +24°C° 0 mm 1 mps 685 mmHg 61%
    07:00 +27°C° 0 mm 1 mps 686 mmHg 52%
    08:00 +29°C° 0 mm 1 mps 686 mmHg 44%
    09:00 +31°C° 0 mm 1 mps 686 mmHg 35%
    10:00 +32°C° 0 mm 2 mps 686 mmHg 32%
    11:00 +34°C° 0 mm 2 mps 686 mmHg 28%
    12:00 +36°C° 0 mm 2 mps 686 mmHg 24%
    13:00 +36°C° 0 mm 2 mps 685 mmHg 23%
    14:00 +37°C° 0 mm 2 mps 685 mmHg 21%
    15:00 +37°C° 0 mm 2 mps 685 mmHg 20%
    16:00 +37°C° 0 mm 2 mps 685 mmHg 22%
    17:00 +36°C° 0 mm 2 mps 685 mmHg 24%
    18:00 +35°C° 0 mm 1 mps 685 mmHg 26%
    19:00 +32°C° 0 mm 2 mps 686 mmHg 33%
    20:00 +30°C° 0 mm 2 mps 686 mmHg 40%
    21:00 +28°C° 0 mm 3 mps 687 mmHg 48%
    22:00 +27°C° 0.1 mm 3 mps 687 mmHg 51%
    23:00 +26°C° 0.1 mm 2 mps 687 mmHg 54%

    27 July, Thursday

    Time Temperature Precipitation Wind Pressure Humidity
    00:00 +26°C° 0.1 mm 2 mps 687 mmHg 57%
    01:00 +25°C° 0.1 mm 2 mps 687 mmHg 58%
    02:00 +25°C° 0.1 mm 2 mps 687 mmHg 59%
    03:00 +24°C° 0.1 mm 2 mps 688 mmHg 60%
    04:00 +24°C° 0 mm 2 mps 688 mmHg 60%
    05:00 +25°C° 0 mm 1 mps 688 mmHg 59%
    06:00 +25°C° 0 mm 1 mps 688 mmHg 59%
    07:00 +27°C° 0 mm 1 mps 688 mmHg 51%
    08:00 +30°C° 0 mm 1 mps 689 mmHg 43%
    09:00 +32°C° 0 mm 1 mps 689 mmHg 36%
    10:00 +33°C° 0 mm 1 mps 689 mmHg 32%
    11:00 +36°C° 0 mm 2 mps 689 mmHg 28%
    12:00 +37°C° 0 mm 2 mps 688 mmHg 24%
    13:00 +38°C° 0 mm 2 mps 688 mmHg 22%
    14:00 +38°C° 0 mm 2 mps 688 mmHg 21%
    15:00 +39°C° 0 mm 2 mps 688 mmHg 19%
    16:00 +39°C° 0 mm 2 mps 688 mmHg 21%
    17:00 +38°C° 0 mm 2 mps 688 mmHg 22%
    18:00 +37°C° 0 mm 2 mps 687 mmHg 24%
    19:00 +35°C° 0 mm 2 mps 688 mmHg 31%
    20:00 +31°C° 0 mm 2 mps 688 mmHg 37%
    21:00 +29°C° 0 mm 3 mps 688 mmHg 44%
    22:00 +28°C° 0 mm 2 mps 688 mmHg 47%
    23:00 +28°C° 0 mm 2 mps 689 mmHg 49%

    28 July, Friday

    Time Temperature Precipitation Wind Pressure Humidity
    00:00 +27°C° 0 mm 2 mps 689 mmHg 52%
    01:00 +27°C° 0 mm 2 mps 689 mmHg 53%
    02:00 +26°C° 0 mm 2 mps 689 mmHg 53%
    03:00 +26°C° 0 mm 2 mps 689 mmHg 54%
    04:00 +26°C° 0 mm 1 mps 689 mmHg 53%
    05:00 +26°C° 0 mm 1 mps 689 mmHg 52%
    06:00 +27°C° 0 mm 1 mps 690 mmHg 51%
    07:00 +29°C° 0 mm 1 mps 690 mmHg 43%
    08:00 +32°C° 0 mm 2 mps 690 mmHg 35%
    09:00 +35°C° 0 mm 2 mps 690 mmHg 28%
    10:00 +37°C° 0 mm 2 mps 690 mmHg 25%
    11:00 +38°C° 0 mm 2 mps 689 mmHg 22%
    12:00 +40°C° 0 mm 3 mps 689 mmHg 19%
    13:00 +40°C° 0 mm 3 mps 689 mmHg 18%
    14:00 +42°C° 0 mm 3 mps 689 mmHg 17%
    15:00 +42°C° 0 mm 3 mps 688 mmHg 16%
    16:00 +42°C° 0 mm 3 mps 688 mmHg 18%
    17:00 +40°C° 0 mm 2 mps 688 mmHg 20%
    18:00 +39°C° 0 mm 2 mps 688 mmHg 22%
    19:00 +37°C° 0 mm 2 mps 688 mmHg 28%
    20:00 +34°C° 0 mm 2 mps 689 mmHg 34%
    21:00 +30°C° 0 mm 2 mps 689 mmHg 40%
    22:00 +30°C° 0 mm 2 mps 689 mmHg 42%
    23:00 +29°C° 0 mm 2 mps 689 mmHg 45%

    29 July, Saturday

    Time Temperature Precipitation Wind Pressure Humidity
    00:00 +29°C° 0 mm 2 mps 689 mmHg 47%
    01:00 +28°C° 0 mm 2 mps 689 mmHg 46%
    02:00 +28°C° 0 mm 2 mps 689 mmHg 45%
    03:00 +27°C° 0 mm 2 mps 689 mmHg 44%
    04:00 +27°C° 0 mm 1 mps 690 mmHg 43%
    05:00 +28°C° 0 mm 1 mps 690 mmHg 41%
    06:00 +28°C° 0 mm 1 mps 690 mmHg 39%
    07:00 +31°C° 0 mm 1 mps 690 mmHg 32%
    08:00 +34°C° 0 mm 2 mps 691 mmHg 25%
    09:00 +37°C° 0 mm 2 mps 691 mmHg 18%
    10:00 +38°C° 0 mm 2 mps 691 mmHg 16%
    11:00 +40°C° 0 mm 2 mps 691 mmHg 14%
    12:00 +42°C° 0 mm 3 mps 691 mmHg 12%
    13:00 +43°C° 0 mm 3 mps 690 mmHg 12%
    14:00 +43°C° 0 mm 3 mps 690 mmHg 11%
    15:00 +43°C° 0 mm 3 mps 689 mmHg 11%
    16:00 +42°C° 0 mm 3 mps 689 mmHg 12%
    17:00 +42°C° 0 mm 3 mps 689 mmHg 14%
    18:00 +40°C° 0 mm 2 mps 689 mmHg 15%
    19:00 +37°C° 0 mm 2 mps 689 mmHg 19%
    20:00 +35°C° 0 mm 2 mps 689 mmHg 22%
    21:00 +31°C° 0 mm 2 mps 689 mmHg 25%
    22:00 +30°C° 0 mm 2 mps 689 mmHg 29%
    23:00 +30°C° 0 mm 2 mps 689 mmHg 32%
    Show more